Regional Weather Roundup
Issued by NWS

Home | Current Version | Previous Version | Text Only | Print | Product List | Glossary On
Versions: 1 2 3 4 5 6 7 8 9 10 11 12 13 14 15 16 17 18 19 20 21 22 23 24 25 26 27 28 29 30 31 32 33 34 35 36 37 38 39 40 41 42 43 44 45 46 47
000
ASUS45 KBOI 262210
RWRID
WEATHER ROUNDUP FOR IDAHO
NATIONAL WEATHER SERVICE BOISE ID
300 PM MST THU FEB 26 2015

NOTE: "FAIR" INDICATES FEW OR NO CLOUDS BELOW 12000 FEET
WITH NO SIGNIFICANT WEATHER AND/OR OBSTRUCTIONS TO VISIBILITY

IDZ012-014-262300-
SOUTHWEST IDAHO


CITY           SKY/WX    TMP DP  RH WIND       PRES   REMARKS
BOISE          PTSUNNY   49  31  49 NW15      29.98F
CALDWELL       PTSUNNY   52  30  43 W13       30.01F
MOUNTAIN HOME  MOSUNNY   47  30  51 NW18      29.97F
$$

IDZ016-017-262300-
SOUTHCENTRAL IDAHO


CITY           SKY/WX    TMP DP  RH WIND       PRES   REMARKS
BURLEY         CLOUDY    43  21  41 W9        29.94F
JEROME         MOSUNNY   41  29  62 S8        29.96F
TWIN FALLS     CLOUDY    40  29  64 SW7       29.97F
$$

IDZ019>023-262300-
SOUTHEAST IDAHO


CITY           SKY/WX    TMP DP  RH WIND       PRES   REMARKS
IDAHO FALLS    MOSUNNY   41   8  25 VRB7      29.93F
POCATELLO      PTSUNNY   42  12  29 NW10      29.94F
REXBURG        SUNNY     40   5  23 N8        29.92F WCI  34
$$

IDZ006-010-011-018-031-032-262300-
CENTRAL IDAHO MOUNTAINS


CITY           SKY/WX    TMP DP  RH WIND       PRES   REMARKS
MCCALL         LGT SNOW  32  28  85 N7        29.94F VSB 3/4 WCI  26
HAILEY         FLURRIES  37  27  65 SW12      29.93F WCI  30
STANLEY          N/A     34  17  50 NW5       29.90F WCI  30
SALMON         CLOUDY    37  19  48 SW6       29.96F WCI  33
CHALLIS        PTSUNNY   39  18  42 CALM      29.90F
$$

IDZ002-004-006-007-026-262300-
NORTHERN IDAHO


CITY           SKY/WX    TMP DP  RH WIND       PRES   REMARKS
LEWISTON       CLOUDY    45  38  76 NW3       30.06F
LOWELL           N/A     49  30  48 S12G17    30.05F
COEUR D`ALENE  CLOUDY    45  28  53 N5        30.02F
MULLAN PASS    LGT SNOW  27  18  69 CALM      29.94F
$$



USA.gov is the U.S. government's official web portal to all federal, state and local government web resources and services.